Location: *
(35.1500°N, 76.6700°W)
Time: 03:32:49
(UTC+00:00)

Cosmos 1470 - Pass Details

Date: 13 October 2019
Orbit: 520 x 544 km, 82.5° (Epoch: 20 November)

Event Time Altitude Azimuth Distance (km) Brightness Sun altitude
Rises 23:20:21 0° 202° (SSW) 2,687 6.7 -10.2°
Reaches altitude 10° 23:22:36 10° 211° (SSW) 1,801 5.9 -10.6°
Maximum altitude 23:26:19 38° 280° (W) 838 4.4 -11.4°
Drops below altitude 10° 23:30:03 10° 350° (N) 1,815 5.6 -12.1°
Sets 23:32:20 0° 358° (N) 2,711 6.4 -12.6°
